[keps] orb07291.2l.amsat

Ray Hoad r.hoad at att.net
Thu Oct 18 19:11:27 PDT 2007


SB KEPS @ AMSAT  $ORB07291.N
2Line Orbital Elements 07291.AMSAT

HR AMSAT ORBITAL ELEMENTS FOR AMATEUR SATELLITES IN NASA FORMAT
FROM WA5QGD FORT WORTH,TX October 18, 2007
Send Subscribe/unsubscribe to KEPS at 
http://www.amsat.org/mailman/listinfo/keps
BID: ORB07291.N

DECODE 2-LINE ELSETS WITH THE FOLLOWING KEY:
1 AAAAAU 00  0  0 BBBBB.BBBBBBBB  .CCCCCCCC  00000-0  00000-0 0  DDDZ
2 AAAAA EEE.EEEE FFF.FFFF GGGGGGG HHH.HHHH III.IIII JJ.JJJJJJJJKKKKKZ
KEY: A-CATALOGNUM B-EPOCHTIME C-DECAY D-ELSETNUM E-INCLINATION F-RAAN
G-ECCENTRICITY H-ARGPERIGEE I-MNANOM J-MNMOTION K-ORBITNUM Z-CHECKSUM

TO ALL RADIO AMATEURS BT

AO-07
1 07530U 74089B   07291.52233884 -.00000028  00000-0  10000-3 0    38
2 07530 101.5022 325.8453 0011989 016.5903 343.5562 12.53572744506571
AO-10
1 14129U 83058B   07289.96721458  .00000064  00000-0  10000-3 0  4347
2 14129 026.0615 250.9204 6056544 065.1206 344.8973 02.05869616183071
UO-11
1 14781U 84021B   07290.73245554  .00000216  00000-0  36185-4 0  4989
2 14781 098.1821 315.7545 0009933 133.4560 226.7454 14.79586606267858
RS-15
1 23439U 94085A   07290.90959802 -.00000039  00000-0  10000-3 0 00849
2 23439 064.8159 168.4561 0155442 168.6241 191.8260 11.27552492527533
FO-29
1 24278U 96046B   07291.77975313 -.00000015  00000-0  17690-4 0  6158
2 24278 098.5666 234.9093 0351327 123.0615 240.4788 13.52932312551616
SO-33
1 25509U 98061B   07290.94110056  .00000115  00000-0  12699-4 0 00459
2 25509 031.4302 251.6970 0354853 060.5636 302.9908 14.28182072468813
AO-40
1 26609U 00072B   07290.16234480 -.00000023  00000-0  10000-3 0  9549
2 26609 006.7560 115.5814 7943369 014.1870 359.1983 01.25585842 31974
VO-52
1 28650U 05017B   07290.84267090  .00000434  00000-0  61984-4 0 07562
2 28650 097.8206 358.7407 0026599 212.1254 147.8337 14.81370121132576
PO-63
1 29712U 07001D   07291.85084999  .00000416  00000-0  62038-4 0  8319
2 29712 097.9091 349.2219 0015560 088.6202 271.6788 14.79856354 41625
AO-16
1 20439U 90005D   07290.52759536  .00000002  00000-0  15876-4 0 01582
2 20439 098.2069 278.4073 0010704 177.4454 182.6783 14.31772647926058
LO-19
1 20442U 90005G   07290.61545809 -.00000094  00000-0 -19967-4 0   826
2 20442 098.1882 287.6474 0011926 175.9580 184.1690 14.32011943926219
AO-27
1 22825U 93061C   07291.48335069 -.00000004  00000-0  14772-4 0  8051
2 22825 098.3485 256.0876 0007496 257.2920 102.7425 14.29219811733108
IO-26
1 22826U 93061D   07291.85940770  .00000006  00000-0  18633-4 0  5041
2 22826 098.3413 257.4670 0008003 254.6571 105.3732 14.29467042733241
PO-28
1 22829U 93061G   07291.47499296 -.00000057  00000-0 -59346-5 0  7805
2 22829 098.3313 258.2470 0008940 225.0520 134.9933 14.30168566733439
GO-32
1 25397U 98043D   07290.77686336 -.00000071  00000-0 -13327-4 0 04292
2 25397 098.3992 332.5395 0000716 187.0424 173.0721 14.23132008481590
MO-46
1 26548U 00057D   07290.76616009  .00000043  00000-0  22900-4 0 09242
2 26548 064.5562 163.4385 0000176 284.3833 075.7203 14.83183713381713
NO-44
1 26931U 01043C   07290.73830228  .00000243  00000-0  12737-3 0 07125
2 26931 067.0527 191.7993 0006116 251.1978 108.8484 14.29499748315612
SO-50
1 27607U 02058C   07291.83159779 -.00000085  00000-0  89658-5 0  4344
2 27607 064.5578 069.6114 0068963 329.2992 030.4077 14.71293011259314
CO-55
1 27844U 03031E   07290.66322802  .00000029  00000-0  33771-4 0 01469
2 27844 098.7202 297.3021 0010678 096.9105 263.3278 14.20536731222864
CO-57
1 27848U 03031J   07290.55866056  .00000037  00000-0  37655-4 0 01043
2 27848 098.7201 296.3538 0010508 100.0446 260.1923 14.20352698222822
AO-51
1 28375U 04025K   07290.67400937  .00000013  00000-0  16548-4 0  9363
2 28375 098.1007 323.6097 0083475 170.6861 189.5907 14.40583019173340
CO-56
1 28941U 06005C   07291.61312862  .00026286  26007-5  25073-3 0  5959
2 28941 098.1152 006.7859 0209721 194.1276 165.4170 15.44283144 92458
HO-59
1 29484U 06041F   07291.67435468  .00054384  33649-5  30954-3 0  7772
2 29484 098.2663 000.9834 0175878 179.8271 180.3089 15.60384685 60278
NO-61
1 29664U 06055F   07291.88619482  .00071931  13697-4  12203-3 0  5705
2 29664 051.6281 156.0070 0009388 119.8793 240.3149 16.02645025 47912
CP4
1 31122U 07012F   07291.55847949  .00000549  00000-0  13192-3 0  1639
2 31122 098.0743 000.7751 0085366 003.2175 356.9557 14.55041869 26795
CP3
1 31128U 07012M   07290.85743542 -.00000048  00000-0  00000-0 0 01604
2 31128 098.0721 359.1862 0103223 007.6652 352.6081 14.51872675026622
LIBERT
1 31129U 07012N   07291.19090455  .00000337  00000-0  89029-4 0  4459
2 31129 098.0735 359.5236 0103179 006.5633 353.6868 14.51966306 26656
NOAA-10
1 16969U 86073A   07290.62852407 -.00000017  00000-0  11328-4 0 08534
2 16969 098.7419 307.8662 0012333 167.5183 192.6293 14.27337011096697
NOAA-11
1 19531U 88089A   07290.75732186 -.00000251  00000-0 -10732-3 0 08871
2 19531 098.8091 018.3793 0012323 044.2899 315.9265 14.14852724983485
NOAA-12
1 21263U 91032A   07290.92456451 -.00000100  00000-0 -23271-4 0 03911
2 21263 098.7612 288.0072 0013377 111.1524 249.1057 14.25497204853734
MET-3/5
1 21655U 91056A   07290.93913390  .00000051  00000-0  10000-3 0 03999
2 21655 082.5483 276.2109 0012009 264.0590 095.9163 13.17012772777562
MET-2/21
1 22782U 93055A   07290.58132706  .00000001  00000-0 -12590-4 0  9615
2 22782 082.5459 304.8237 0020920 252.0434 107.8444 13.83619573713449
OKEAN-4
1 23317U 94066A   07290.74949081  .00000273  00000-0  30890-4 0  3991
2 23317 082.5417 182.1971 0021178 205.4736 154.5466 14.82541712702218
NOAA-14
1 23455U 94089A   07290.73164771  .00000214  00000-0  13710-3 0 08624
2 23455 098.9764 357.4939 0010242 112.7717 247.4525 14.13728802659958
SICH-1
1 23657U 95046A   07291.68493648  .00000111  00000-0  11106-4 0  2005
2 23657 082.5276 322.2781 0023520 193.1500 166.9098 14.81518757654316
NOAA-15
1 25338U 98030A   07290.86730342  .00000044  00000-0  37340-4 0 02051
2 25338 098.5414 284.1473 0011267 035.9973 324.1935 14.24668423490152
RESURS
1 25394U 98043A   07290.73790358 -.00000004  00000-0  16362-4 0  7633
2 25394 098.4261 340.3294 0001028 150.7773 209.3463 14.24147161481798
FENGYUN1
1 25730U 99025A   07291.75089219  .00000019  00000-0  36137-4 0  2472
2 25730 098.7019 271.0047 0019088 130.0062 230.2787 14.07623461434859
OKEAN-0
1 25860U 99039A   07290.60284177  .00000042  00000-0  13669-4 0  1878
2 25860 097.7371 287.1747 0001453 038.2212 321.9093 14.73478734443527
NOAA-16
1 26536U 00055A   07290.81089634 -.00000248  00000-0 -10920-3 0 06470
2 26536 099.1334 269.9749 0010335 184.6345 175.4732 14.12452883364417
NOAA-17
1 27453U 02032A   07290.78758697  .00000161  00000-0  88750-4 0 06451
2 27453 098.5675 357.0761 0012763 097.9577 262.3036 14.23917431276164
NOAA-18
1 28654U 05018A   07290.78024524 -.00000076  00000-0 -17741-4 0 01664
2 28654 098.8392 230.0538 0013518 283.8148 076.1531 14.11101983124143
HUBBLE
1 20580U 90037B   07290.87768244  .00000327  00000-0  12492-4 0  9846
2 20580 028.4667 110.0459 0003448 315.7857 044.2454 15.00290443758400
UARS
1 21701U 91063B   07290.92189061  .00005733  00000-0  93532-4 0 02081
2 21701 056.9727 140.9188 0095647 071.4678 289.6746 15.49294680884767
PO-34
1 25520U 98064B   07290.53863914  .00000432  00000-0  11546-4 0  8469
2 25520 028.4595 009.8255 0005796 152.4085 207.6813 15.17063885496123
ISS
1 25544U 98067A   07292.03058130  .00014417  00000-0  95696-4 0  1864
2 25544 051.6371 185.2020 0003081 103.5402 032.4322 15.75768142510312
OO-38
1 26063U 00004C   07291.44209784 -.00000028  00000-0  10771-4 0   372
2 26063 100.2255 316.8326 0036829 172.4841 187.6899 14.35817241404730
UWE-1
1 28892U 05043C   07291.74934750  .00000202  00000-0  51987-4 0  8761
2 28892 098.1140 185.8361 0018458 087.3160 273.0186 14.59550571105237
CO-58
1 28895U 05043F   07291.72422313  .00000064  00000-0  23033-4 0  8520
2 28895 098.1155 186.0711 0018939 086.8800 273.4545 14.59593473105115
NCUBE2
1 28897U 05043H   07290.68845782  .00000120  00000-0  34679-4 0 03790
2 28897 098.1141 185.0036 0018236 092.1146 268.2177 14.59758099097248
FCAL
1 29667U 06055J   07291.73706424  .00020618  11360-4  66766-4 0  4170
2 29667 051.6319 164.2651 0013154 110.6606 249.5669 15.92969622 47661
FALCON
1 30776U 07006E   07291.89622471  .00000242  00000-0  20820-4 0  1642
2 30776 035.4331 182.6862 0000589 031.2542 328.8208 15.02782946 33670
MAST
1 31126U 07012K   07291.70057102  .00000115  00000-0  36882-4 0  1613
2 31126 098.0702 000.4271 0095319 003.8127 356.3765 14.53369942 26798
CAPE1
1 31130U 07012P   07290.71725154  .00000242  00000-0  67161-4 0  1421
2 31130 098.0711 359.0505 0103074 007.9036 352.3747 14.51893219 26397
/EX






More information about the Keps mailing list